Havre, MT

6:42 PM MST on January 16, 2018 (GMT -0700)
Havre City-County

Weather History for KHVR - November, 2012

Change the Weather History Date:

Monday, November 12, 2012

  Actual Average Record
Temperature  
Mean Temperature 25 °F 32 °F  
Max Temperature 35 °F 43 °F 78 °F (1999)
Min Temperature 14 °F 20 °F -20 °F (1916)
Degree Days  
Heating Degree Days 40 33  
Month to date heating degree days 395 366  
Since 1 July heating degree days 1322 1365  
Cooling Degree Days 0 0  
Month to date cooling degree days 0 0  
Year to date cooling degree days 507 387  
Moisture  
Dew Point 20 °F    
Average Humidity 71    
Maximum Humidity 81    
Minimum Humidity 61    
Precipitation  
Precipitation 0.00 in 0.01 in 0.33 in (1930)
Month to date precipitation 0.59 0.18  
Year to date precipitation 12.08 10.55  
Snow  
Snow 0.00 in 0.20 in 3.60 in (1978)
Month to date snowfall 11.5 1.7  
Since 1 July snowfall 13.0 4.0  
Since 1 September snowfall 13.0 4.0  
Snow Depth 12.00 in    
Sea Level Pressure  
Sea Level Pressure 30.16 in    
Wind  
Wind Speed 15 mph (SW)    
Max Wind Speed 24 mph    
Max Gust Speed 29 mph    
Visibility 10 miles    
Events      
T = Trace of Precipitation, MM = Missing Value Source: NWS Daily Summary

Daily Weather History Graph

Daily Weather History Graph

Search for Another Location

Airport or City:

Trip Planner

Search our weather history database for the weather conditions in past years. The results will help you decide how hot, cold, wet, or windy it might be!

Date:

Astronomy

Nov. 12, 2012 Rise Set
Actual Time 7:23 AM MST 4:42 PM MST
Civil Twilight 6:49 AM MST 5:16 PM MST
Nautical Twilight 6:11 AM MST 5:54 PM MST
Astronomical Twilight 5:34 AM MST 6:31 PM MST
Moon 5:48 AM MST (11/12) 3:52 PM MST (11/12)
Length of Visible Light 10h 27m
Length of Day
9h 19m
Waning Crescent, 2% of the Moon is Illuminated
Nov 12
Waning Crescent
Nov 13
New
Nov 20
First Quarter
Nov 28
Full
Dec 6
Last Quarter

Hourly Weather History & Observations

Time (MST) Temp. Windchill Dew Point Humidity Pressure Visibility Wind Dir Wind Speed Gust Speed Precip Events Conditions
12:53 AM 15.1 °F -1.1 °F 8.1 °F 74% 30.21 in 10.0 mi SW 17.3 mph - N/A   Overcast
1:53 AM 16.0 °F -2.1 °F 9.0 °F 74% 30.19 in 10.0 mi SW 23.0 mph 28.8 mph N/A   Clear
2:53 AM 18.0 °F 1.7 °F 10.0 °F 71% 30.20 in 10.0 mi SW 19.6 mph - N/A   Clear
3:53 AM 21.0 °F 5.7 °F 12.9 °F 71% 30.19 in 10.0 mi SW 19.6 mph - N/A   Clear
4:53 AM 23.0 °F 8.0 °F 15.1 °F 72% 30.19 in 10.0 mi SSW 20.7 mph - N/A   Clear
5:53 AM 21.9 °F 7.3 °F 15.1 °F 75% 30.20 in 10.0 mi SW 18.4 mph - N/A   Clear
6:53 AM 21.9 °F 6.9 °F 15.1 °F 75% 30.19 in 10.0 mi SW 19.6 mph - N/A   Clear
7:53 AM 24.1 °F 8.7 °F 16.0 °F 71% 30.20 in 10.0 mi SSW 23.0 mph - N/A   Clear
8:53 AM 25.0 °F 10.6 °F 17.1 °F 72% 30.21 in 10.0 mi SW 20.7 mph - N/A   Clear
9:53 AM 28.9 °F 16.1 °F 19.9 °F 69% 30.19 in 10.0 mi SW 19.6 mph - N/A   Clear
10:53 AM 30.9 °F 18.7 °F 21.0 °F 67% 30.18 in 10.0 mi SW 19.6 mph - N/A   Clear
11:53 AM 33.1 °F 21.9 °F 21.9 °F 64% 30.15 in 10.0 mi SW 18.4 mph - N/A   Clear
12:53 PM 33.1 °F 21.5 °F 23.0 °F 66% 30.14 in 10.0 mi SW 19.6 mph - N/A   Clear
1:53 PM 34.0 °F 23.8 °F 24.1 °F 67% 30.13 in 10.0 mi SW 16.1 mph - N/A   Clear
2:53 PM 33.1 °F 25.5 °F 24.1 °F 70% 30.14 in 10.0 mi SW 9.2 mph - N/A   Scattered Clouds
3:53 PM 35.1 °F 25.5 °F 26.1 °F 70% 30.12 in 10.0 mi SSW 15.0 mph - N/A   Overcast
4:53 PM 33.1 °F 23.9 °F 25.0 °F 72% 30.12 in 10.0 mi SSW 12.7 mph - N/A   Clear
5:53 PM 28.9 °F 22.8 °F 23.0 °F 78% 30.12 in 10.0 mi SW 5.8 mph - N/A   Clear
6:53 PM 26.1 °F - 21.0 °F 81% 30.13 in 10.0 mi Calm Calm - N/A   Clear
7:53 PM 28.9 °F 19.8 °F 23.0 °F 78% 30.13 in 10.0 mi SW 10.4 mph - N/A   Clear
8:53 PM 28.0 °F 17.0 °F 23.0 °F 81% 30.13 in 10.0 mi SW 13.8 mph - N/A   Clear
9:53 PM 32.0 °F 27.5 °F 26.1 °F 79% 30.12 in 10.0 mi Variable 4.6 mph - N/A   Scattered Clouds
10:53 PM 30.0 °F 24.1 °F 25.0 °F 82% 30.13 in 10.0 mi West 5.8 mph - N/A   Clear
11:53 PM 28.9 °F 25.2 °F 25.0 °F 85% 30.14 in 10.0 mi WNW 3.5 mph - N/A   Mostly Cloudy